DW9470 Weather Reports


Display with metric or nautical units.
time (UTC)temp
F
wind
direction
speed
MPH
gust
MPH
rain 1hr
in
rain 24hr
in
rain mn
in
humidity
%
barometer
mb
20260502164011 58 280 9.0 1.0 0.00 0.00 0.00 37 1020.6
20260502163511 58 222 4.0 1.0 0.00 0.00 0.00 34 1020.6
20260502163011 57 319 1.0 1.0 0.00 0.00 0.00 34 1020.6
20260502162511 57 253 0.0 1.0 0.00 0.00 0.00 37 1020.7
20260502162011 56 198 0.0 1.0 0.00 0.00 0.00 37 1020.7
20260502161511 56 311 1.0 1.0 0.00 0.00 0.00 37 1020.8
20260502161010 55 169 8.0 1.0 0.00 0.00 0.00 38 1020.8
20260502160511 56 224 5.0 1.0 0.00 0.00 0.00 36 1020.9
20260502152011 53 300 5.0 1.0 0.00 0.00 0.00 41 1021.2
20260502151511 53 253 7.0 1.0 0.00 0.00 0.00 40 1021.2
20260502151011 53 240 1.0 1.0 0.00 0.00 0.00 40 1021.3
20260502150511 53 276 1.0 1.0 0.00 0.00 0.00 42 1021.4
20260502130510 42 284 4.0 1.0 0.00 0.00 0.00 66 1022.0
20260502123511 38 282 4.0 0.0 0.00 0.00 0.00 71 1022.0
20260502123010 37 280 3.0 0.0 0.00 0.00 0.00 72 1022.0
20260502122510 36 293 2.0 0.0 0.00 0.00 0.00 73 1021.9
20260502122010 35 278 0.0 0.0 0.00 0.00 0.00 74 1021.9
20260502121510 35 302 0.0 0.0 0.00 0.00 0.00 73 1021.9
20260502121010 34 307 0.0 0.0 0.00 0.00 0.00 74 1021.8
20260502120510 33 311 0.0 0.0 0.00 0.00 0.00 74 1021.8
20260502115510 31 283 1.0 0.0 0.00 0.00 0.00 75 1021.8
20260502115010 31 281 0.0 0.0 0.00 0.00 0.00 75 1021.7
20260502114010 31 283 0.0 0.0 0.00 0.00 0.00 75 1021.7
20260502113510 31 284 0.0 0.0 0.00 0.00 0.00 75 1021.6
20260502113010 31 299 0.0 0.0 0.00 0.00 0.00 75 1021.6
20260502112511 31 299 0.0 0.0 0.00 0.00 0.00 75 1021.6
20260502112011 31 297 0.0 0.0 0.00 0.00 0.00 75 1021.6
20260502111510 31 290 0.0 0.0 0.00 0.00 0.00 75 1021.6
20260502111010 31 290 0.0 0.0 0.00 0.00 0.00 75 1021.6
20260502110510 30 290 0.0 0.0 0.00 0.00 0.00 75 1021.5
20260502110010 30 291 0.0 0.0 0.00 0.00 0.00 75 1021.5
20260502105510 31 287 0.0 0.0 0.00 0.00 0.00 75 1021.6
20260502105010 31 287 0.0 0.0 0.00 0.00 0.00 75 1021.5
20260502104010 31 280 1.0 0.0 0.00 0.00 0.00 75 1021.5
20260502103510 31 283 1.0 0.0 0.00 0.00 0.00 75 1021.5
20260502103011 30 273 0.0 0.0 0.00 0.00 0.00 75 1021.5
20260502102510 30 276 0.0 0.0 0.00 0.00 0.00 75 1021.5
20260502101510 31 274 0.0 0.0 0.00 0.00 0.00 75 1021.5
20260502101010 31 288 0.0 0.0 0.00 0.00 0.00 75 1021.5
20260502100510 31 285 0.0 0.0 0.00 0.00 0.00 75 1021.5
20260502091510 30 266 0.0 0.0 0.00 0.00 0.00 75 1021.3
20260502090511 30 266 0.0 0.0 0.00 0.00 0.00 75 1021.3
20260502071511 33 290 0.0 0.0 0.00 0.00 0.00 72 1021.4
20260502071010 33 290 0.0 0.0 0.00 0.00 0.00 72 1021.4
20260502070511 33 290 0.0 0.0 0.00 0.00 0.00 72 1021.3
20260502070012 34 290 0.0 0.0 0.00 0.00 0.00 71 1021.4
20260502065511 34 290 0.0 0.0 0.00 0.00 0.00 71 1021.4
20260502064511 34 290 0.0 0.0 0.00 0.00 0.00 71 1021.4
20260502064010 34 290 0.0 0.0 0.00 0.00 0.00 71 1021.4
20260502063510 34 290 0.0 0.0 0.00 0.00 0.00 71 1021.5
20260502063011 34 290 0.0 0.0 0.00 0.00 0.00 72 1021.5
20260502062511 34 290 0.0 0.0 0.00 0.00 0.00 72 1021.5
20260502062011 34 290 0.0 0.0 0.00 0.00 0.00 71 1021.5
20260502061511 34 290 0.0 0.0 0.00 0.00 0.00 71 1021.6
20260502060511 34 290 0.0 0.0 0.00 0.00 0.00 71 1021.5
20260502060011 34 290 0.0 0.0 0.00 0.00 0.00 71 1021.6
20260502055511 34 290 0.0 0.0 0.00 0.00 0.00 72 1021.5
20260502054511 35 290 0.0 0.0 0.00 0.00 0.00 71 1021.4
20260502053511 35 290 0.0 0.0 0.00 0.00 0.00 71 1021.4
20260502052511 35 290 0.0 0.0 0.00 0.00 0.00 70 1021.2
20260502052011 35 290 0.0 0.0 0.00 0.00 0.00 69 1021.2
20260502051511 35 290 0.0 0.0 0.00 0.00 0.00 70 1021.1
20260502051012 35 290 0.0 0.0 0.00 0.00 0.00 70 1021.2
20260502050511 35 290 0.0 0.0 0.00 0.00 0.00 70 1021.1
20260502050011 35 290 0.0 0.0 0.00 0.00 0.00 70 1021.0
20260502045511 35 290 0.0 0.0 0.00 0.00 0.00 70 1021.0
20260502045012 35 290 0.0 0.0 0.00 0.00 0.00 69 1021.0
20260502044511 35 290 0.0 0.0 0.00 0.00 0.00 69 1021.0
20260502044011 35 290 0.0 0.0 0.00 0.00 0.00 69 1020.9
20260502043511 35 290 0.0 0.0 0.00 0.00 0.00 68 1020.9
20260502042511 36 290 0.0 0.0 0.00 0.00 0.00 68 1020.8
20260502042011 36 290 0.0 0.0 0.00 0.00 0.00 68 1020.9
20260502041511 36 290 0.0 0.0 0.00 0.00 0.00 68 1020.9
20260502041011 36 289 0.0 0.0 0.00 0.00 0.00 68 1020.9
20260502040511 36 290 0.0 0.0 0.00 0.00 0.00 67 1020.9
20260502035511 37 290 0.0 0.0 0.00 0.00 0.00 66 1020.9
20260502035011 37 291 0.0 0.0 0.00 0.00 0.00 65 1020.9
20260502034511 37 334 0.0 0.0 0.00 0.00 0.00 65 1020.8
20260502034012 37 335 0.0 0.0 0.00 0.00 0.00 65 1020.9
20260502033510 37 283 0.0 0.0 0.00 0.00 0.00 64 1020.8
20260502032510 38 283 0.0 0.0 0.00 0.00 0.00 62 1020.7
20260502032010 38 283 0.0 0.0 0.00 0.00 0.00 62 1020.7
20260502031510 38 283 0.0 0.0 0.00 0.00 0.00 62 1020.7
20260502030510 40 53 0.0 0.0 0.00 0.00 0.00 59 1020.6
20260502025510 41 53 0.0 0.0 0.00 0.00 0.00 58 1020.6
20260502025010 41 53 0.0 0.0 0.00 0.00 0.00 57 1020.6
20260502024510 42 53 0.0 0.0 0.00 0.00 0.00 56 1020.5
20260502023510 43 46 0.0 0.0 0.00 0.00 0.00 55 1020.4
20260502022510 43 302 0.0 0.0 0.00 0.00 0.00 54 1020.4
20260502022010 43 53 0.0 0.0 0.00 0.00 0.00 54 1020.3
20260502021510 44 53 0.0 0.0 0.00 0.00 0.00 53 1020.2
20260502021010 45 53 0.0 0.0 0.00 0.00 0.00 52 1020.1
20260502015510 46 49 0.0 0.0 0.00 0.00 0.00 50 1019.9
20260502015010 46 312 0.0 0.0 0.00 0.00 0.00 50 1019.8
20260502014010 47 27 0.0 0.0 0.00 0.00 0.00 48 1019.7
20260502013510 47 273 0.0 0.0 0.00 0.00 0.00 47 1019.7
20260502013010 48 291 0.0 0.0 0.00 0.00 0.00 46 1019.6
20260502012510 48 331 0.0 0.0 0.00 0.00 0.00 45 1019.5
20260502011510 49 283 0.0 0.0 0.00 0.00 0.00 45 1019.4
20260502011010 49 301 0.0 0.0 0.00 0.00 0.00 44 1019.4
20260502010512 50 308 0.0 0.0 0.00 0.00 0.00 43 1019.3
20260502010010 50 37 0.0 0.0 0.00 0.00 0.00 43 1019.3
20260502005510 50 30 4.0 0.0 0.00 0.00 0.00 44 1019.3
20260502005010 50 86 2.0 0.0 0.00 0.00 0.00 43 1019.2
20260502004510 50 57 0.0 0.0 0.00 0.00 0.00 42 1019.1
20260502003510 52 339 0.0 1.0 0.00 0.00 0.00 40 1019.0
20260502003010 52 290 0.0 1.0 0.00 0.00 0.00 40 1018.9
20260502002510 53 19 0.0 1.0 0.00 0.00 0.00 39 1018.9
20260502002010 54 311 5.0 1.0 0.00 0.00 0.00 36 1018.9
20260502001510 54 288 1.0 0.0 0.00 0.00 0.00 35 1018.9
20260502001010 54 342 0.0 0.0 0.00 0.00 0.00 35 1018.9
20260502000512 55 277 3.0 0.0 0.00 0.00 0.00 35 1018.8
20260502000010 55 291 2.0 0.0 0.00 0.00 0.00 34 1018.7
20260501235511 55 345 2.0 1.0 0.00 0.00 0.00 35 1018.7
20260501235010 55 314 3.0 1.0 0.00 0.00 0.00 34 1018.8
20260501234511 55 312 4.0 1.0 0.00 0.00 0.00 34 1018.8
20260501234010 55 307 1.0 1.0 0.00 0.00 0.00 35 1018.8
20260501233510 55 312 3.0 1.0 0.00 0.00 0.00 36 1018.8
20260501233010 56 334 2.0 1.0 0.00 0.00 0.00 36 1018.7
20260501232510 56 307 1.0 1.0 0.00 0.00 0.00 36 1018.7
20260501232010 56 40 1.0 1.0 0.00 0.00 0.00 35 1018.7
20260501231510 57 326 1.0 1.0 0.00 0.00 0.00 35 1018.7
20260501231011 56 315 0.0 1.0 0.00 0.00 0.00 35 1018.7
20260501230010 54 193 0.0 0.0 0.00 0.00 0.00 37 1018.7
20260501225510 53 285 0.0 0.0 0.00 0.00 0.00 39 1018.6
20260501225010 53 323 1.0 0.0 0.00 0.00 0.00 38 1018.6
20260501224512 54 257 0.0 1.0 0.00 0.00 0.00 37 1018.6
20260501223511 56 307 3.0 1.0 0.00 0.00 0.00 37 1018.6
20260501223010 55 266 2.0 1.0 0.00 0.00 0.00 37 1018.6
20260501222510 54 11 2.0 1.0 0.00 0.00 0.00 38 1018.6
20260501221010 54 311 4.0 1.0 0.00 0.00 0.00 37 1018.6
20260501220511 54 132 3.0 1.0 0.00 0.00 0.00 39 1018.6
20260501220010 53 60 1.0 1.0 0.00 0.00 0.00 42 1018.5
20260501215510 52 353 0.0 1.0 0.00 0.00 0.00 40 1018.6
20260501215010 52 309 1.0 0.0 0.00 0.00 0.00 41 1018.6
20260501214511 52 319 2.0 0.0 0.00 0.00 0.00 41 1018.6
20260501214011 52 300 0.0 0.0 0.00 0.00 0.00 42 1018.6
20260501213012 52 51 0.0 1.0 0.00 0.00 0.00 42 1018.6
20260501212511 52 303 0.0 1.0 0.00 0.00 0.00 41 1018.6
20260501211511 52 37 2.0 0.0 0.00 0.00 0.00 42 1018.6
20260501211011 52 283 0.0 1.0 0.00 0.00 0.00 43 1018.6
20260501210511 52 334 0.0 0.0 0.00 0.00 0.00 42 1018.7
20260501210011 52 321 1.0 0.0 0.00 0.00 0.00 42 1018.7
20260501205511 53 231 0.0 1.0 0.00 0.00 0.00 42 1018.7
20260501205011 53 37 4.0 1.0 0.00 0.00 0.00 43 1018.7
20260501204511 53 30 1.0 1.0 0.00 0.00 0.00 42 1018.8
20260501204011 53 285 0.0 1.0 0.00 0.00 0.00 42 1018.7
20260501203012 53 304 0.0 1.0 0.00 0.00 0.00 42 1018.8
20260501202511 53 293 0.0 1.0 0.00 0.00 0.00 42 1018.8
20260501202011 53 277 1.0 0.0 0.00 0.00 0.00 43 1018.9
20260501201511 53 338 1.0 0.0 0.00 0.00 0.00 43 1018.9
20260501201011 52 309 1.0 1.0 0.00 0.00 0.00 44 1018.9
20260501200511 52 300 0.0 1.0 0.00 0.00 0.00 43 1018.8
20260501200011 52 326 0.0 1.0 0.00 0.00 0.00 43 1018.8
20260501195511 53 44 6.0 1.0 0.00 0.00 0.00 45 1018.8
20260501195011 52 355 0.0 1.0 0.00 0.00 0.00 44 1018.7
20260501194511 52 61 5.0 1.0 0.00 0.00 0.00 44 1018.9
20260501193511 52 330 1.0 1.0 0.00 0.00 0.00 46 1018.7
20260501193011 52 281 2.0 1.0 0.00 0.00 0.00 45 1018.8
20260501192511 52 323 5.0 1.0 0.00 0.00 0.00 46 1018.8
20260501192011 52 54 9.0 1.0 0.00 0.00 0.00 46 1018.8
20260501191511 52 303 2.0 0.0 0.00 0.00 0.00 46 1018.9
20260501190511 52 28 3.0 1.0 0.00 0.00 0.00 47 1018.8
20260501190012 52 44 1.0 1.0 0.00 0.00 0.00 47 1018.9
20260501185511 53 22 0.0 1.0 0.00 0.00 0.00 46 1018.8
20260501185011 53 26 5.0 1.0 0.00 0.00 0.00 48 1018.8
20260501184511 53 309 2.0 1.0 0.00 0.00 0.00 46 1018.9
20260501184011 53 306 0.0 1.0 0.00 0.00 0.00 48 1018.8
20260501182511 51 288 0.0 1.0 0.00 0.00 0.00 49 1018.9
20260501182011 50 310 4.0 1.0 0.00 0.00 0.00 51 1018.9
20260501181511 50 18 0.0 0.0 0.00 0.00 0.00 52 1018.9
20260501181011 50 327 0.0 1.0 0.00 0.00 0.00 50 1018.9
20260501180511 50 327 2.0 1.0 0.00 0.00 0.00 50 1019.1
20260501180011 50 42 1.0 0.0 0.00 0.00 0.00 53 1019.1
20260501175511 50 303 2.0 0.0 0.00 0.00 0.00 51 1019.1
20260501175011 50 46 3.0 1.0 0.00 0.00 0.00 53 1019.1
20260501174510 49 90 0.0 0.0 0.00 0.00 0.00 54 1019.2
20260501174011 49 282 0.0 0.0 0.00 0.00 0.00 58 1019.2
20260501173510 49 309 0.0 1.0 0.00 0.00 0.00 59 1019.2
20260501173010 48 35 9.0 1.0 0.00 0.00 0.00 58 1019.2
20260501172510 48 351 0.0 1.0 0.00 0.00 0.00 59 1019.3
20260501172010 48 61 5.0 1.0 0.00 0.00 0.00 64 1019.2
20260501171510 48 352 0.0 1.0 0.00 0.00 0.00 62 1019.1
20260501171010 49 34 5.0 1.0 0.00 0.00 0.00 61 1019.2
20260501170510 49 34 2.0 1.0 0.00 0.00 0.00 60 1019.2
20260501170010 48 67 1.0 1.0 0.00 0.00 0.00 60 1019.2